Hourly Weather Kozlovo

Today, 20 October, Tuesday

Time Temperature Precipitation Wind Pressure Humidity
00:00 0°C° 0 mm 4 mps 741 mmHg 82%
01:00 0°C° 0 mm 4 mps 741 mmHg 83%
02:00 0°C° 0 mm 4 mps 741 mmHg 85%
03:00 0°C° 0 mm 5 mps 741 mmHg 84%
04:00 0°C° 0 mm 5 mps 741 mmHg 83%
05:00 0°C° 0 mm 5 mps 741 mmHg 83%
06:00 0°C° 0 mm 5 mps 741 mmHg 85%
07:00 -1°C° 0 mm 6 mps 742 mmHg 88%
08:00 -1°C° 0 mm 6 mps 743 mmHg 91%
09:00 +1°C° 0.1 mm 6 mps 743 mmHg 83%
10:00 +2°C° 0.1 mm 5 mps 744 mmHg 75%
11:00 +2°C° 0.1 mm 5 mps 744 mmHg 66%
12:00 +2°C° 0 mm 5 mps 745 mmHg 66%
13:00 +4°C° 0 mm 4 mps 746 mmHg 65%
14:00 +4°C° 0 mm 4 mps 746 mmHg 65%
15:00 +3°C° 0 mm 3 mps 747 mmHg 68%
16:00 +4°C° 0 mm 2 mps 747 mmHg 71%
17:00 +3°C° 0 mm 2 mps 747 mmHg 74%
18:00 +4°C° 0 mm 1 mps 747 mmHg 76%
19:00 +4°C° 0 mm 1 mps 747 mmHg 78%
20:00 +4°C° 0 mm 1 mps 748 mmHg 80%
21:00 +4°C° 0 mm 1 mps 748 mmHg 81%
22:00 +4°C° 0 mm 1 mps 748 mmHg 83%
23:00 +3°C° 0 mm 2 mps 748 mmHg 85%

Tomorrow, 21 October, Wednesday

Time Temperature Precipitation Wind Pressure Humidity
00:00 +3°C° 0 mm 2 mps 748 mmHg 85%
01:00 +3°C° 0 mm 2 mps 748 mmHg 86%
02:00 +3°C° 0 mm 2 mps 748 mmHg 87%
03:00 +3°C° 0 mm 2 mps 747 mmHg 86%
04:00 +3°C° 0 mm 2 mps 746 mmHg 85%
05:00 +3°C° 0 mm 2 mps 746 mmHg 84%
06:00 +2°C° 0.3 mm 3 mps 745 mmHg 86%
07:00 +2°C° 0.3 mm 3 mps 745 mmHg 88%
08:00 +2°C° 0.3 mm 3 mps 745 mmHg 91%
09:00 +3°C° 1.2 mm 3 mps 744 mmHg 92%
10:00 +3°C° 1.2 mm 4 mps 744 mmHg 93%
11:00 +3°C° 1.2 mm 4 mps 744 mmHg 93%
12:00 +4°C° 0.1 mm 3 mps 743 mmHg 93%
13:00 +4°C° 0.1 mm 3 mps 743 mmHg 93%
14:00 +4°C° 0.1 mm 3 mps 743 mmHg 93%
15:00 +5°C° 0 mm 2 mps 743 mmHg 94%
16:00 +5°C° 0 mm 2 mps 742 mmHg 95%
17:00 +6°C° 0 mm 1 mps 742 mmHg 95%
18:00 +6°C° 0 mm 1 mps 742 mmHg 96%
19:00 +6°C° 0 mm 1 mps 743 mmHg 97%
20:00 +6°C° 0 mm 1 mps 743 mmHg 97%
21:00 +6°C° 0 mm 1 mps 743 mmHg 97%
22:00 +6°C° 0 mm 1 mps 743 mmHg 98%
23:00 +5°C° 0 mm 1 mps 743 mmHg 98%

Day after tomorrow, 22 October, Thursday

Time Temperature Precipitation Wind Pressure Humidity
00:00 +5°C° 0 mm 2 mps 743 mmHg 97%
01:00 +5°C° 0 mm 2 mps 743 mmHg 96%
02:00 +5°C° 0 mm 2 mps 743 mmHg 95%
03:00 +5°C° 0 mm 2 mps 742 mmHg 95%
04:00 +5°C° 0 mm 3 mps 742 mmHg 94%
05:00 +5°C° 0 mm 3 mps 741 mmHg 94%
06:00 +5°C° 0.9 mm 3 mps 740 mmHg 95%
07:00 +5°C° 0.9 mm 4 mps 740 mmHg 95%
08:00 +5°C° 0.9 mm 4 mps 739 mmHg 95%
09:00 +6°C° 0.3 mm 4 mps 739 mmHg 93%
10:00 +6°C° 0.3 mm 4 mps 738 mmHg 91%
11:00 +7°C° 0.3 mm 4 mps 738 mmHg 89%
12:00 +8°C° 0 mm 4 mps 738 mmHg 88%
13:00 +8°C° 0 mm 4 mps 737 mmHg 87%
14:00 +10°C° 0 mm 4 mps 737 mmHg 86%
15:00 +10°C° 0 mm 4 mps 737 mmHg 86%
16:00 +10°C° 0 mm 5 mps 737 mmHg 86%
17:00 +10°C° 0 mm 5 mps 737 mmHg 86%
18:00 +10°C° 0 mm 5 mps 737 mmHg 86%
19:00 +11°C° 0 mm 6 mps 737 mmHg 85%
20:00 +11°C° 0 mm 6 mps 738 mmHg 85%
21:00 +12°C° 0 mm 5 mps 738 mmHg 86%
22:00 +10°C° 0 mm 5 mps 738 mmHg 86%
23:00 +10°C° 0 mm 5 mps 738 mmHg 87%

23 October, Friday

Time Temperature Precipitation Wind Pressure Humidity
00:00 +11°C° 0 mm 4 mps 738 mmHg 88%
01:00 +11°C° 0 mm 4 mps 739 mmHg 89%
02:00 +11°C° 0 mm 4 mps 739 mmHg 91%
03:00 +11°C° 0 mm 4 mps 739 mmHg 90%
04:00 +11°C° 0 mm 4 mps 739 mmHg 90%
05:00 +11°C° 0 mm 4 mps 739 mmHg 89%
06:00 +11°C° 0 mm 4 mps 738 mmHg 91%
07:00 +10°C° 0 mm 4 mps 738 mmHg 93%
08:00 +10°C° 0 mm 4 mps 737 mmHg 95%
09:00 +10°C° 0.1 mm 4 mps 737 mmHg 93%
10:00 +10°C° 0.1 mm 5 mps 736 mmHg 91%
11:00 +10°C° 0.1 mm 5 mps 736 mmHg 89%
12:00 +12°C° 1.4 mm 5 mps 736 mmHg 90%
13:00 +12°C° 1.4 mm 5 mps 735 mmHg 91%
14:00 +12°C° 1.4 mm 5 mps 735 mmHg 92%
15:00 +12°C° 1 mm 5 mps 735 mmHg 91%
16:00 +12°C° 1 mm 5 mps 735 mmHg 90%
17:00 +10°C° 1 mm 5 mps 735 mmHg 89%
18:00 +10°C° 0.1 mm 5 mps 735 mmHg 89%
19:00 +10°C° 0.1 mm 5 mps 736 mmHg 88%
20:00 +10°C° 0.1 mm 4 mps 736 mmHg 88%
21:00 +10°C° 0 mm 4 mps 736 mmHg 88%
22:00 +8°C° 0 mm 4 mps 736 mmHg 89%
23:00 +8°C° 0 mm 4 mps 737 mmHg 90%

24 October, Saturday

Time Temperature Precipitation Wind Pressure Humidity
00:00 +7°C° 0 mm 4 mps 737 mmHg 91%
01:00 +8°C° 0 mm 3 mps 737 mmHg 93%
02:00 +8°C° 0 mm 3 mps 738 mmHg 94%
03:00 +8°C° 0 mm 3 mps 738 mmHg 94%
04:00 +8°C° 0 mm 3 mps 738 mmHg 94%
05:00 +8°C° 0 mm 3 mps 738 mmHg 94%
06:00 +8°C° 0 mm 3 mps 738 mmHg 92%
07:00 +8°C° 0 mm 3 mps 738 mmHg 91%
08:00 +8°C° 0 mm 3 mps 738 mmHg 89%
09:00 +8°C° 0 mm 3 mps 738 mmHg 87%
10:00 +9°C° 0 mm 3 mps 739 mmHg 85%
11:00 +9°C° 0 mm 3 mps 739 mmHg 83%
12:00 +9°C° 0 mm 3 mps 739 mmHg 83%
13:00 +9°C° 0 mm 2 mps 738 mmHg 83%
14:00 +9°C° 0 mm 2 mps 738 mmHg 83%
15:00 +9°C° 0 mm 2 mps 738 mmHg 85%
16:00 +10°C° 0 mm 1 mps 737 mmHg 87%
17:00 +9°C° 0 mm 1 mps 737 mmHg 90%
18:00 +9°C° 0.2 mm 1 mps 736 mmHg 91%
19:00 +8°C° 0.2 mm 2 mps 736 mmHg 93%
20:00 +8°C° 0.2 mm 2 mps 736 mmHg 94%
21:00 +8°C° 1.3 mm 2 mps 735 mmHg 95%
22:00 +8°C° 1.3 mm 3 mps 735 mmHg 95%
23:00 +8°C° 1.3 mm 3 mps 734 mmHg 96%

25 October, Sunday

Time Temperature Precipitation Wind Pressure Humidity
00:00 +8°C° 2.2 mm 3 mps 734 mmHg 95%
01:00 +8°C° 2.2 mm 3 mps 734 mmHg 94%
02:00 +7°C° 2.2 mm 4 mps 734 mmHg 94%
03:00 +8°C° 1.3 mm 3 mps 734 mmHg 93%
04:00 +7°C° 1.3 mm 3 mps 735 mmHg 93%
05:00 +7°C° 1.3 mm 3 mps 735 mmHg 93%
06:00 +7°C° 0.1 mm 3 mps 736 mmHg 93%
07:00 +7°C° 0.1 mm 3 mps 737 mmHg 94%
08:00 +7°C° 0.1 mm 2 mps 737 mmHg 94%
09:00 +8°C° 0 mm 3 mps 738 mmHg 90%
10:00 +8°C° 0 mm 3 mps 739 mmHg 85%
11:00 +9°C° 0 mm 3 mps 740 mmHg 81%
12:00 +9°C° 0 mm 3 mps 740 mmHg 82%
13:00 +9°C° 0 mm 3 mps 741 mmHg 83%
14:00 +9°C° 0 mm 3 mps 741 mmHg 83%
15:00 +9°C° 0 mm 3 mps 742 mmHg 84%
16:00 +8°C° 0 mm 3 mps 742 mmHg 85%
17:00 +8°C° 0 mm 3 mps 743 mmHg 86%
18:00 +7°C° 0 mm 3 mps 743 mmHg 88%
19:00 +7°C° 0 mm 2 mps 744 mmHg 91%
20:00 +6°C° 0 mm 2 mps 744 mmHg 93%
21:00 +6°C° 0 mm 2 mps 745 mmHg 94%
22:00 +6°C° 0 mm 1 mps 745 mmHg 95%
23:00 +6°C° 0 mm 1 mps 745 mmHg 96%

26 October, Monday

Time Temperature Precipitation Wind Pressure Humidity
00:00 +6°C° 0 mm 1 mps 746 mmHg 96%
01:00 +6°C° 0 mm 1 mps 746 mmHg 96%
02:00 +5°C° 0 mm 1 mps 746 mmHg 97%
03:00 +5°C° 0 mm 1 mps 746 mmHg 97%
04:00 +5°C° 0 mm 1 mps 747 mmHg 96%
05:00 +5°C° 0 mm 1 mps 747 mmHg 96%
06:00 +5°C° 0 mm 1 mps 747 mmHg 96%
07:00 +4°C° 0 mm 0 mps 748 mmHg 96%
08:00 +4°C° 0 mm 0 mps 748 mmHg 96%
09:00 +7°C° 0 mm 1 mps 748 mmHg 91%
10:00 +8°C° 0 mm 1 mps 748 mmHg 86%
11:00 +9°C° 0 mm 1 mps 748 mmHg 81%
12:00 +10°C° 0 mm 1 mps 748 mmHg 80%
13:00 +10°C° 0 mm 1 mps 749 mmHg 79%
14:00 +11°C° 0 mm 1 mps 749 mmHg 78%
15:00 +9°C° 0 mm 1 mps 749 mmHg 83%
16:00 +8°C° 0 mm 1 mps 749 mmHg 87%
17:00 +7°C° 0 mm 1 mps 748 mmHg 92%
18:00 +7°C° 0 mm 1 mps 749 mmHg 93%
19:00 +6°C° 0 mm 2 mps 749 mmHg 93%
20:00 +5°C° 0 mm 2 mps 749 mmHg 94%
21:00 +5°C° 0 mm 2 mps 749 mmHg 94%
22:00 +5°C° 0 mm 2 mps 749 mmHg 95%
23:00 +5°C° 0 mm 2 mps 749 mmHg 95%
Show more